Regional Weather Roundup
Issued by NWS

Home | Current Version | Previous Version | Text Only | Print | Product List | Glossary On
Versions: 1 2 3 4 5 6 7 8 9 10 11 12 13 14 15 16 17 18 19 20 21 22 23 24 25 26 27 28 29 30 31 32 33 34 35 36 37 38 39 40 41 42 43 44 45 46 47 48 49 50
000
ASUS43 KLOT 040403
RWRIL

ILLINOIS REGIONAL WEATHER ROUNDUP
NATIONAL WEATHER SERVICE CHICAGO/ROMEOVILLE IL
1000 PM CST SAT DEC 03 2016

NOTE: "FAIR" INDICATES FEW OR NO CLOUDS BELOW 12,000 FEET WITH NO
SIGNIFICANT WEATHER AND/OR OBSTRUCTIONS TO VISIBILITY.

* THESE STATIONS ARE NOT UNDER NWS QUALITY CONTROL. THEY ALSO MAY NOT
  REPORT WEATHER SUCH AS PRECIPITATION OR FOG.

ILZ001-002-007-009-015-016-024-040500-
NORTHWEST ILLINOIS

CITY           SKY/WX    TMP DP  RH WIND       PRES   REMARKS
MOLINE         CLOUDY    35  26  69 SE9       30.25F WCI  28
$$

ILZ003-004-008-010-011-017-018-040500-
NORTH CENTRAL ILLINOIS

CITY           SKY/WX    TMP DP  RH WIND       PRES   REMARKS
ROCKFORD       CLOUDY    34  28  79 S7        30.28F WCI  28
FREEPORT*      CLOUDY    32  28  83 SE5       30.27F WCI  27
ROCHELLE*      CLOUDY    32  29  90 S5        30.27F WCI  27
$$

ILZ005-006-012>014-019>023-040500-
NORTHEAST ILLINOIS

CITY           SKY/WX    TMP DP  RH WIND       PRES   REMARKS
CHICAGO-OHARE  CLOUDY    31  26  82 S5        30.28F WCI  26
CHICAGO-MIDWAY CLOUDY    32  24  72 S5        30.28F WCI  27
AURORA         CLOUDY    32  27  81 SE3       30.27F
LANSING*       CLOUDY    30  28  92 SW3       30.29F
JOLIET*        CLOUDY    32  28  84 CALM      30.28F
WAUKEGAN       CLOUDY    32  25  75 CALM      30.27F
DUPAGE AIRPORT CLOUDY    31  25  78 S5        30.26F WCI  26
KANKAKEE*      CLOUDY    30  27  89 CALM      30.30F
WHEELING       CLOUDY    31  26  82 S5        30.29F WCI  26
MORRIS*        CLOUDY    31  27  87 CALM      30.28F
ROMEOVILLE*    PTCLDY    30  29  96 SE3       30.27F
NORTHERLY ISL    N/A     33  24  70 SW3         N/A
$$

LMZ740>746-040500-
SOUTHERN LAKE MICHIGAN

STATION/POSITION SKY/WX   TEMP    WIND        PRES    VSBY  WAVE
                          AIR SEA DIR/SP/G                  HT/PER
                          (F)     (DEG/KT/KT) (MB)    (MI)  (FT/S)
SOUTHERN BUOY              35 48  290/  6/  8 1025.6F         1/ 3
HARRISON CRIB              35     260/  2/  3   N/A
BURNHAM HARBOR             33     240/  3/  5   N/A
CALUMET HARBOR             32     230/  3/  4 1025.2F
BURNS HARBOR               33     190/  6/  9 1026.1F
MICHIGAN CITY              33     150/  6/  7   N/A
$$

ILZ025>027-034>036-040-047-049-050-058-095>099-040500-
WEST-CENTRAL ILLINOIS

CITY           SKY/WX    TMP DP  RH WIND       PRES   REMARKS
QUINCY         CLOUDY    38  34  85 SE10      30.21F WCI  31
GALESBURG*     CLOUDY    33  29  83 E7        30.24F WCI  27
MACOMB*        CLOUDY    35  31  86 SE8       30.26S WCI  29
JACKSONVILLE*  CLOUDY    37  32  84 E7        30.25S WCI  31
PITTSFIELD*    CLOUDY    38  35  87 E5        30.25S WCI  35
$$

ILZ028>032-037-038-041>044-048-051>054-059>061-040500-
CENTRAL ILLINOIS

CITY           SKY/WX    TMP DP  RH WIND       PRES   REMARKS
PONTIAC        CLOUDY    32  31  95 SE5       30.30S WCI  27
BLOOMINGTON    CLOUDY    30  28  92 SE6       30.28F WCI  24
DECATUR        CLOUDY    34  28  79 E9        30.28F WCI  27
PEORIA         CLOUDY    34  28  79 E8        30.27F WCI  27
LACON*         MOCLDY    32  28  84 SE5       30.28R WCI  27
LINCOLN*       CLOUDY    34  31  88 E8        30.28S WCI  27
SPRINGFIELD    CLOUDY    37  31  78 SE8       30.27S WCI  31
TAYLORVILLE    CLOUDY    35  31  85 E9        30.27S WCI  28
$$

ILZ033-039-045-046-055>057-062-063-040500-
EAST-CENTRAL ILLINOIS

CITY           SKY/WX    TMP DP  RH WIND       PRES   REMARKS
CHAMPAIGN      CLOUDY    32  27  81 E6        30.28S WCI  26
RANTOUL*       CLOUDY    33  30  88 CALM      30.29R
MATTOON        CLOUDY    34  28  79 E6        30.28S WCI  29
PARIS*         CLOUDY    32  29  90 CALM      30.29F
$$

ILZ079-100>102-040500-
SOUTHWEST ILLINOIS

CITY           SKY/WX    TMP DP  RH WIND       PRES   REMARKS
ALTON          CLOUDY    37  34  87 E3        30.26S
BELLEVILLE     CLOUDY    40  35  84 E5        30.24F
CAHOKIA*       CLOUDY    41  32  70 E6        30.24F
SPARTA*        CLOUDY    40  33  76 E5        30.25S
$$

ILZ064>066-069>071-074>076-080>082-084>086-088>090-092>094-040500-
SOUTH-CENTRAL ILLINOIS

CITY           SKY/WX    TMP DP  RH WIND       PRES   REMARKS
CARBONDALE     CLOUDY    41  33  73 E5        30.24F
CAIRO*         LGT RAIN  39  35  88 E5        30.22F
EFFINGHAM*     CLOUDY    37  32  84 NE3       30.30R
MARION         CLOUDY    41  34  75 CALM      30.25S
CENTRALIA*     CLOUDY    39  34  81 E3        30.25F
SALEM*         CLOUDY    40  32  74 E3        30.26S
METROPOLIS*    LGT RAIN  40  35  81 CALM      30.24F
$$

ILZ067-068-072-073-078-083-087-091-040500-
SOUTHEAST ILLINOIS

CITY           SKY/WX    TMP DP  RH WIND       PRES   REMARKS
LAWRENCEVILLE  CLOUDY    37  30  75 NE8       30.28F WCI  31
FLORA*         CLOUDY    40  32  74 E6        30.28S
FAIRFIELD*     CLOUDY    39  33  76 CALM      30.26S
HARRISBURG*    PTCLDY    40  34  79 E6        30.25F
ROBINSON*      CLOUDY    35  30  83 NE3       30.30F
CARMI*         CLOUDY    39  34  80 E7        30.25F WCI  34
$$

ABBREVIATIONS USED IN REMARKS
   TC - TEMPERATURE IN CELSIUS
  WCI - WIND CHILL INDEX
   HX - HEAT INDEX
  VSB - VISIBILITY
$$





USA.gov is the U.S. government's official web portal to all federal, state and local government web resources and services.